{"data":{"norad_id":46706,"epoch":"2026-05-24T23:16:12.767808Z","epoch_age_seconds":77379,"freshness":"FRESH","line1":"1 46706U 20073AN  26144.96959222  .00034243  00000+0  11819-2 0  9993","line2":"2 46706  53.0589 235.0217 0003325   5.0603 355.0429 15.29669704308976","mean_motion":15.29669704,"eccentricity":0.0003325,"inclination_deg":53.0589,"raan_deg":235.0217,"arg_perigee_deg":5.0603,"mean_anomaly_deg":355.0429,"bstar":0.0011819,"rev_number":30897,"period_min":94.137969539076,"perigee_km":474.51962891265,"apogee_km":479.0781612829,"semimajor_km":6854.9358950978,"source":"CELESTRAK","updated_at":"2026-05-25T13:38:16.516865Z"}}